DECAYED

STARLINK-4614, 53741 (Decayed)

Orbit data source: Space-Track

STARLINK-4614, 53741 was a payload satellite owned by SpaceX/Seattle (US) in LEO that was launched on Mon, 05 Sep 2022 UTC via an FALCON 9 launch vehicle from the Air Force Eastern Test Range (AFETR). Payload-class satellites include a variety of spacecraft equipped with specific instruments for various scientific and technological missions. These include communications satellites like Starlink; space stations such as the ISS; scientific satellites like the Hubble; Earth observation satellites from companies like Planet Labs, Umbra, and HawkEye 360; GPS; miniature CubeSats for education and research; and military/defense satellites.

Not visible in the next 10 days
Identifier
53741, 2022-107AT
Orbit
Decayed
Country
Flag of USUS
Related business
Manufacturer
SpaceX/Seattle
Mission
Decayed Commercial Communications
Bus & Motor
STARLINK, Unknown motor
Mass
305 kg wet, ~290 kg dry
Launch date (UTC)
2022-09-05 (4 years ago)
Launch vehicle
FALCON 9
Launch site
Air Force Eastern Test Range (AFETR)
Object type
Payload
Rocket body
Debris
Shape & HBR
Box + 1 Pan, 10.1 m
Radar Cross Section
13.562 m², Large (>1 m²)

Expand to show TLE details & history
Last TLE update: 11 months ago

TLE from 11 months ago
0 STARLINK-4614
1 53741U 22107AT  25214.58279979  .10555564  12355-4  13347-2 0  9993
2 53741  53.2029 116.4509 0008688 349.5366  76.0513 16.35074300161453
Epoch: 2025-08-02T13:59Z
TLE epoch observation values (Epoch: 2025-08-02T13:59:13.901Z)
Latitude
47.01426°
Longitude
8.15986°
Altitude
182.677 km
Speed
7.803 km/s
True Right ascension
11h 17m 32s
True Declination
46° 49' 39"
Sunlit
Object was in daylight at epoch
Visualization orbit readout
Latitude
Unknown
Longitude
Unknown
Altitude
Unknown
Speed
Unknown
Apparent Right ascension
Unknown
Apparent Declination
Unknown
Sunlit
N/A
Visualization observer readout
Local Sidereal Time
23:08:35
Azimuth
Unknown
Elevation
Unknown
Doppler factor
Unknown
Orbital elements
Apogee altitude
184.896 km
Perigee altitude
173.502 km
Semi-major axis
6,557.336 km
Eccentricity
0.00087
Inclination
53.2029°
RAAN
116.4509°
Arg. of periapsis
349.5366°
True anomaly
76.14795°
Mean anomaly
76.0513°
Eccentric anomaly
76.09962°
Mean motion
4.08745 °/min
Orbital period
88.07 mins
BSTAR
0.0013347
Loading maneuver chart data...
Computing Atmospheric mass density...

Documentation

Showing up to 5 results
|